Theta_e
349 350 350 351 352 354 357 356 357 356 356 356 356 355 354 353 352 350 351 356 355 354 352 351 351 352 351 351 355 355 350 342 338 335 339 340 339 339 334 336 337 336 339
348 350 351 352 353 355 356 358 358 359 356 358 356 356 353 352 350 350 351 352 353 353 354 353 352 351 352 353 353 354 349 343 338 340 340 347 341 336 334 338 336 336 334
346 350 352 352 352 355 357 359 359 359 359 358 357 354 356 351 354 352 353 354 355 355 356 355 356 355 357 354 354 352 348 341 338 340 341 347 344 341 339 337 334 332 334
346 349 352 351 351 353 356 358 360 361 361 356 359 356 355 356 353 352 352 351 354 355 356 356 356 359 358 357 352 351 346 338 339 339 341 338 340 345 343 335 333 331 330
344 347 350 351 350 351 354 356 361 360 361 361 357 357 357 355 352 353 352 352 355 355 356 357 357 356 360 357 353 348 343 340 341 342 340 340 338 334 337 335 332 328 327
343 346 347 349 350 350 351 355 360 361 361 362 357 358 358 354 356 353 354 356 354 357 357 358 359 360 360 356 352 344 344 341 344 342 343 340 335 334 332 332 329 329 326
345 347 350 350 350 350 350 352 357 362 362 362 363 355 358 361 353 359 355 355 355 356 359 357 359 359 358 353 348 345 343 343 344 343 342 337 334 330 328 328 329 328 327
348 347 350 350 350 350 350 351 355 362 364 364 365 364 359 363 367 359 358 360 353 354 355 358 358 358 356 350 348 346 343 343 343 343 338 337 333 329 328 328 328 329 327
349 348 348 351 351 351 350 351 353 361 365 366 366 367 367 363 362 362 359 355 359 356 356 357 358 358 352 349 347 345 343 342 343 341 336 333 332 329 328 328 327 326 328
346 350 349 348 351 352 352 352 353 361 365 367 367 367 367 368 365 363 360 362 357 355 359 358 358 355 350 348 347 345 344 343 343 337 333 333 332 330 330 328 327 326 328
344 346 350 349 348 349 352 353 354 354 363 368 368 368 369 368 369 366 366 360 364 359 361 360 357 351 348 347 346 344 345 343 341 336 334 333 332 331 330 329 328 325 326
340 343 346 351 349 348 348 350 353 355 356 366 368 368 369 370 370 370 367 366 364 364 363 362 357 349 346 346 347 345 345 343 338 335 333 333 332 331 331 329 325 325 327
341 345 349 354 353 351 348 348 351 352 355 359 367 367 369 369 371 370 370 367 367 365 364 363 356 351 347 346 346 345 344 340 336 334 334 332 332 332 329 324 325 327 328
348 347 361 367 367 353 353 350 350 351 354 359 366 367 369 369 371 370 369 368 367 366 364 361 354 349 346 349 346 345 342 339 335 334 333 333 332 329 325 324 325 326 322
350 356 363 367 372 364 357 356 354 352 355 360 366 369 369 370 370 370 369 369 366 366 363 358 355 349 349 347 346 345 339 336 335 335 334 332 332 327 323 324 324 320 319
346 347 361 366 368 369 364 360 360 358 358 362 367 368 369 369 369 368 368 366 365 364 359 354 351 350 348 347 346 341 337 335 334 334 334 333 329 324 325 324 322 317 320
345 349 362 367 371 364 361 360 360 363 363 366 367 368 369 369 368 366 364 362 363 360 358 353 352 349 348 338 339 337 333 331 332 333 333 331 327 325 324 322 318 317 321
344 351 355 367 365 361 361 360 361 363 366 367 367 368 369 368 368 366 366 364 361 356 354 352 349 347 344 335 334 333 328 331 333 333 333 328 325 325 322 317 314 316 320
350 354 346 363 364 362 362 362 363 365 366 367 368 368 369 369 367 365 362 360 356 353 352 349 347 344 339 336 335 330 330 332 332 333 328 326 325 321 316 310 313 316 316
348 352 342 355 366 365 365 365 366 367 368 368 371 368 366 363 359 357 358 356 354 351 349 346 344 341 340 335 333 328 330 330 329 326 324 320 315 310 305 307 312 316 311
354 346 353 363 366 366 365 368 369 370 369 367 363 360 359 356 354 354 356 354 350 346 345 342 341 339 339 337 334 328 328 325 322 321 321 315 308 305 306 310 311 310 311
355 354 363 365 365 365 368 369 367 367 364 362 360 357 356 354 355 354 350 347 346 345 342 342 341 339 337 336 335 330 324 319 314 318 316 311 307 308 308 308 310 311 311
359 362 368 369 368 367 367 367 363 361 360 358 360 359 357 356 352 349 348 348 347 344 343 341 339 337 335 334 332 327 319 314 315 317 312 311 308 308 308 309 310 309 308
366 364 365 364 361 359 359 359 359 360 360 360 357 354 354 352 351 349 348 347 345 344 342 341 339 336 334 327 323 321 319 318 316 313 313 312 309 309 309 309 309 307 307
359 358 358 358 357 356 355 356 355 356 355 355 354 352 352 352 350 346 345 345 343 342 340 339 337 335 335 326 322 322 318 312 309 310 312 310 309 309 308 309 308 307 308
353 352 352 353 354 355 355 356 356 355 354 353 352 351 351 346 343 338 333 335 335 336 336 336 336 335 334 321 322 319 313 307 308 311 311 310 309 309 308 308 309 307 306
Wind_Speed
20 24 23 24 22 23 23 25 21 21 19 19 19 18 17 18 18 18 15 13 9 8 6 7 10 5 7 3 5 4 7 10 9 13 18 21 17 3 18 15 9 12 6
18 21 26 25 25 24 25 24 24 22 24 20 21 19 18 18 21 18 16 18 14 12 12 11 13 7 8 6 5 3 4 8 10 4 10 4 6 22 25 15 13 8 16
18 18 23 26 27 28 29 28 28 27 26 24 22 21 15 20 12 15 9 15 15 16 14 14 13 13 9 8 3 3 3 5 8 6 5 3 2 11 10 21 19 22 18
19 18 21 26 26 27 29 29 29 28 28 28 21 23 20 16 17 15 14 19 20 20 18 18 17 15 12 9 4 6 6 3 8 9 7 8 11 3 7 12 15 17 23
20 20 21 29 30 29 30 31 31 31 29 29 30 26 24 21 22 19 21 21 18 20 18 17 18 17 13 11 12 8 6 4 6 6 9 11 16 12 7 5 15 26 20
19 20 27 30 32 31 31 33 34 34 33 31 35 29 26 28 19 21 18 16 17 16 19 18 17 14 12 12 11 8 6 5 6 7 8 11 12 10 9 4 11 12 24
20 19 20 23 30 33 33 33 36 36 35 34 32 37 30 26 29 20 20 17 18 18 23 22 14 13 13 13 11 9 8 8 6 7 9 9 11 14 14 15 13 11 23
19 21 22 26 31 34 34 35 35 36 37 37 34 33 34 27 22 25 23 18 23 16 17 22 20 17 14 12 9 10 9 9 9 8 9 7 10 13 15 16 18 11 14
19 22 22 29 31 34 37 36 33 37 38 37 36 33 31 32 29 25 23 28 20 17 17 19 18 18 14 9 10 12 13 12 11 8 7 9 8 12 15 18 19 17 11
21 20 21 27 33 34 36 37 36 33 38 37 36 35 35 33 33 28 30 25 27 25 15 21 19 16 13 15 15 13 15 15 8 6 5 5 8 13 15 17 19 23 20
19 20 22 31 36 36 36 36 37 37 34 36 35 33 34 34 31 31 27 31 25 26 23 24 18 15 18 16 17 13 12 8 7 7 7 7 9 12 14 17 17 21 22
13 15 21 27 33 35 36 36 36 36 38 35 35 33 31 31 31 31 31 25 28 23 23 21 16 17 20 19 16 14 13 12 9 7 8 7 9 14 15 14 18 21 21
3 4 7 5 21 34 35 36 38 39 36 35 34 32 31 31 30 29 28 26 25 26 23 22 19 18 22 15 15 15 11 7 6 7 7 8 11 15 11 19 16 19 18
4 3 3 6 7 26 32 34 34 36 36 35 33 32 30 30 28 26 25 25 24 23 23 19 16 19 17 15 13 11 9 7 8 8 6 9 13 13 23 15 16 16 24
6 7 6 4 5 11 21 26 29 33 33 33 31 30 29 26 25 24 24 22 21 19 20 21 20 17 18 17 15 13 9 8 9 5 9 11 13 18 12 8 14 20 24
6 4 8 7 4 5 10 17 22 27 30 30 28 27 25 24 23 22 22 21 20 20 21 22 22 18 17 15 17 14 9 7 5 7 9 10 13 16 12 15 22 25 23
8 7 10 10 9 12 13 12 14 18 25 24 24 23 22 21 21 23 23 22 22 23 23 24 20 17 14 10 17 16 10 7 6 6 10 9 11 15 16 17 24 21 20
3 4 2 10 16 17 16 16 18 20 21 21 22 21 21 19 19 18 17 16 19 17 13 12 12 12 13 11 9 7 7 5 5 8 8 11 12 12 13 18 20 19 18
3 2 5 11 19 19 19 18 18 19 20 20 18 18 19 17 15 14 13 12 13 12 13 15 8 7 9 8 6 3 3 3 8 9 7 12 7 10 15 18 16 17 19
5 5 5 7 18 16 18 17 16 17 16 17 19 18 16 16 15 13 14 12 11 12 8 9 12 8 8 6 3 2 0 7 7 8 5 4 8 15 16 13 13 14 24
5 7 9 16 18 19 19 16 17 17 18 22 20 18 18 17 18 19 19 22 25 21 20 21 19 18 16 12 8 4 3 3 4 7 7 9 17 13 11 11 12 16 21
6 8 13 15 17 18 20 18 17 21 24 24 21 20 19 21 18 27 29 22 20 19 16 13 16 16 14 10 9 5 5 4 4 5 6 12 11 11 12 11 13 15 19
8 16 18 16 15 18 20 19 21 25 25 24 22 22 20 18 21 19 16 16 11 12 13 16 15 17 12 8 7 6 4 1 3 2 9 6 7 8 10 14 14 17 19
10 17 17 16 18 24 24 23 22 22 22 20 22 19 22 22 18 16 17 16 18 14 15 14 15 16 12 10 7 8 6 2 3 5 7 6 6 10 11 12 14 19 20
16 17 19 17 18 20 19 20 22 21 19 18 20 19 22 21 19 16 13 9 11 13 16 17 17 13 14 12 13 9 9 4 2 2 4 7 10 10 13 13 13 15 18
18 17 19 18 18 18 17 18 18 20 21 19 18 17 16 14 17 15 15 13 10 10 6 11 14 16 14 20 15 8 3 4 4 2 7 10 10 12 13 14 14 16 19
Wind_Direction
187 186 196 184 187 182 179 187 196 196 189 192 194 213 225 219 226 239 243 175 193 222 225 254 283 229 263 326 317 296 338 331 353 348 334 331 332 61 360 330 344 324 14
189 185 185 187 187 185 186 186 195 200 196 202 211 211 216 225 218 227 234 211 212 218 241 236 261 258 263 273 242 263 322 318 338 313 326 324 342 336 339 350 324 352 328
194 182 181 191 188 186 187 189 194 198 199 204 210 225 229 236 253 227 219 202 209 213 227 238 243 256 263 277 209 207 264 309 322 328 263 306 331 320 322 326 335 332 323
187 181 181 186 194 191 189 192 194 199 201 206 211 208 218 227 230 236 234 230 226 224 225 233 235 243 246 257 262 237 227 276 293 318 328 330 299 273 304 319 324 324 328
188 187 184 186 194 195 192 193 196 199 204 204 213 211 211 219 229 223 231 238 221 207 212 226 230 235 239 265 226 238 258 261 298 335 328 312 299 326 328 320 327 326 321
189 190 189 186 191 199 196 193 194 199 203 206 210 216 212 222 223 226 236 200 213 218 218 223 232 229 224 231 232 246 245 254 264 291 295 309 324 331 333 318 317 306 311
183 186 186 187 190 197 198 197 195 197 201 207 209 216 221 221 227 234 228 235 218 221 217 215 220 224 229 229 235 236 234 237 244 266 283 304 322 329 332 324 312 317 306
187 186 188 191 193 196 202 201 197 197 200 205 211 214 220 224 223 233 237 232 237 254 233 202 205 217 222 224 235 238 242 236 245 239 280 293 306 330 336 340 316 308 317
195 188 188 192 196 198 200 205 203 197 201 204 207 213 215 218 224 224 231 238 236 235 229 195 211 197 217 212 235 243 238 243 241 254 259 283 310 323 328 317 329 320 314
192 193 190 193 196 201 204 205 206 201 202 204 206 209 213 217 220 223 225 228 234 237 231 208 207 203 197 209 210 250 252 240 235 265 283 306 304 314 314 329 318 307 304
196 197 192 193 194 197 200 206 206 208 203 204 207 209 212 216 219 221 224 226 229 227 232 227 214 201 200 211 227 215 248 223 225 246 272 278 308 303 319 312 313 324 319
195 209 197 192 191 194 198 202 204 207 207 204 207 210 213 214 218 220 224 225 225 226 222 220 220 189 206 212 218 226 237 219 215 239 263 289 304 310 307 321 325 313 319
123 14 336 331 192 194 195 198 199 204 205 206 203 208 211 214 217 218 221 221 225 222 221 221 203 195 209 219 214 228 240 239 244 251 267 300 307 304 318 326 319 314 321
181 147 333 327 297 190 192 193 197 200 199 200 201 203 209 212 216 214 216 218 218 221 219 206 202 209 232 222 223 231 225 237 252 256 285 295 303 328 323 320 316 325 325
186 167 182 242 278 175 185 191 192 194 194 195 195 200 205 210 211 208 211 212 212 213 204 201 212 223 204 211 219 215 208 220 242 278 282 296 323 324 344 335 333 335 324
224 201 165 176 205 152 169 184 183 189 190 188 189 192 198 202 209 207 205 202 202 201 196 199 205 206 211 215 225 201 211 216 247 264 288 313 327 343 348 330 326 328 322
215 218 186 170 168 169 176 180 178 171 181 178 180 184 190 194 200 204 203 200 194 191 192 193 200 201 201 186 184 193 200 203 244 287 299 311 312 318 320 322 329 331 328
243 300 126 165 173 175 176 184 179 173 167 170 175 179 184 189 182 179 182 180 178 178 176 187 195 185 199 182 184 196 190 214 257 274 285 306 306 301 321 333 334 328 331
277 130 32 180 168 175 175 179 175 172 169 170 171 170 168 161 168 177 171 162 157 160 174 168 183 194 180 193 188 188 181 283 286 275 295 298 291 320 330 335 329 332 331
258 206 195 166 150 161 163 167 163 162 167 169 148 144 152 166 170 167 163 163 156 151 144 153 150 174 204 195 260 216 175 300 329 344 350 5 360 340 341 347 338 330 339
114 142 152 130 142 148 155 157 155 160 161 134 133 148 159 158 158 158 167 160 147 148 163 177 169 180 193 199 219 198 218 295 355 354 39 11 356 356 4 348 350 348 350
104 135 106 116 130 146 150 143 146 150 134 131 144 156 157 157 171 156 155 160 167 159 162 173 173 181 182 179 195 187 223 286 341 349 356 348 359 6 4 354 350 3 2
135 110 107 109 112 126 140 125 125 122 127 141 152 147 144 139 151 147 137 147 158 153 173 192 184 169 165 166 194 182 197 127 28 330 323 328 340 357 9 5 32 16 6
110 119 119 104 92 99 107 109 114 124 127 125 127 141 135 136 144 152 156 163 175 178 190 196 197 183 156 161 166 166 151 186 335 318 303 299 355 15 24 17 33 22 14
109 109 107 108 103 105 109 113 118 127 135 141 141 141 147 153 153 144 157 169 182 199 205 207 198 188 183 189 182 169 151 142 351 15 349 48 25 22 25 19 30 31 15
107 104 105 113 118 121 127 135 144 146 145 148 152 158 155 156 157 148 134 144 167 172 145 165 183 186 196 160 160 148 114 88 103 322 48 42 27 25 23 20 23 31 14